This is the latest recevied weather packets stored in our database for station/object DF2AP-13. If no packets are shown the sender has not sent any weather packets the latest 10 day(s).
| Time | Temp. | Humidity | Pressure | Rain* | Wind** | Luminosity | Snow |
|---|---|---|---|---|---|---|---|
| 1777732527 | 26.67° C | 25% | 1017.8 hPa | - | - | - | - |
| 1777731927 | 27.22° C | 22% | 1018 hPa | - | - | - | - |
| 1777731327 | 27.22° C | 23% | 1018.1 hPa | - | - | - | - |
| 1777730727 | 26.67° C | 25% | 1018.3 hPa | - | - | - | - |
| 1777730127 | 26.67° C | 23% | 1018.4 hPa | - | - | - | - |
| 1777729533 | 26.67° C | 23% | 1018.5 hPa | - | - | - | - |
| 1777728927 | 26.67° C | 22% | 1018.7 hPa | - | - | - | - |
| 1777728327 | 26.67° C | 24% | 1018.8 hPa | - | - | - | - |
| 1777727727 | 26.11° C | 24% | 1019 hPa | - | - | - | - |
| 1777727127 | 26.11° C | 24% | 1019.3 hPa | - | - | - | - |
| 1777726533 | 26.11° C | 25% | 1019.3 hPa | - | - | - | - |
| 1777725927 | 26.11° C | 25% | 1019.5 hPa | - | - | - | - |
| 1777725327 | 26.11° C | 26% | 1019.6 hPa | - | - | - | - |
| 1777724727 | 26.67° C | 25% | 1019.8 hPa | - | - | - | - |
| 1777724133 | 25.56° C | 23% | 1019.9 hPa | - | - | - | - |
| 1777723527 | 25.56° C | 24% | 1020.1 hPa | - | - | - | - |
| 1777722927 | 26.11° C | 27% | 1020.3 hPa | - | - | - | - |
| 1777722327 | 26.11° C | 26% | 1020.4 hPa | - | - | - | - |
| 1777721727 | 25° C | 27% | 1020.6 hPa | - | - | - | - |
| 1777721127 | 24.44° C | 27% | 1021 hPa | - | - | - | - |
| 1777720527 | 24.44° C | 28% | 1021.2 hPa | - | - | - | - |
| 1777719927 | 24.44° C | 28% | 1021.2 hPa | - | - | - | - |
| 1777719327 | 24.44° C | 29% | 1021.4 hPa | - | - | - | - |
| 1777718727 | 23.89° C | 29% | 1021.4 hPa | - | - | - | - |
| 1777718127 | 23.89° C | 31% | 1021.6 hPa | - | - | - | - |
* Rain since midnight (hover to see other rain measurements)
** Current wind speed in m/s (hover to see current wind gust speed)